Location: Newark
(44.3681°N, 100.3364°W)
Time: 18:05:14
(UTC+00:00)

N. Korean satellite - Visible Passes

Search period start: 27 January 2020 00:00
Search period end: 06 February 2020 00:00
Orbit: 454 x 507 km, 97.2° (Epoch: 27 January)

Date Brightness Start Highest point End Pass type
(mag) Time Alt. Az. Time Alt. Az. Time Alt. Az.
27 Jan 6.5 12:44:41 10° N 12:48:16 68° WNW 12:51:53 10° SSW visible
28 Jan 7.3 12:19:13 10° NNE 12:22:46 55° E 12:26:21 10° S visible
29 Jan 9.6 00:30:22 10° SW 00:32:55 19° W 00:35:28 10° NW visible
29 Jan 8.8 11:54:05 10° NE 11:57:11 26° E 12:00:19 10° SSE visible
29 Jan 7.8 13:27:40 10° NNW 13:30:26 21° WNW 13:33:14 10° WSW visible
30 Jan 9.9 11:29:36 10° ENE 11:31:31 14° E 11:33:26 10° ESE visible
30 Jan 7.0 13:01:40 10° N 13:05:05 41° WNW 13:08:32 10° SW visible
31 Jan 6.5 12:36:00 10° NNE 12:39:39 88° W 12:43:19 10° SSW visible
01 Feb 10.0 00:48:24 10° WSW 00:49:53 12° W 00:51:23 10° WNW visible
01 Feb 7.9 12:10:38 10° NNE 12:14:06 43° E 12:17:38 10° S visible
02 Feb 9.2 00:21:19 10° SSW 00:24:11 24° W 00:27:05 10° NW visible
02 Feb 9.2 11:45:37 10° NE 11:48:30 21° E 11:51:23 10° SE visible
02 Feb 7.6 13:18:46 10° NNW 13:21:51 26° WNW 13:24:57 10° SW visible
03 Feb 10.2 11:21:41 10° ENE 11:22:47 11° E 11:23:53 10° ESE visible
03 Feb 6.7 12:52:53 10° N 12:56:28 53° WNW 13:00:03 10° SSW visible
04 Feb 6.8 12:27:20 10° NNE 12:30:59 73° E 12:34:40 10° S visible
05 Feb 9.8 00:38:58 10° SW 00:41:07 16° W 00:43:18 10° NW visible
05 Feb 8.4 12:02:03 10° NNE 12:05:25 34° E 12:08:49 10° SSE visible
